Hurricane Symbol View the latest observations near Atlantic Tropical Depression Alberto.

Station IOSN3 - Isle of Shoals, NH Image indicating link to RSS feed of recent meteorological observations for station IOSN3


Conditions at IOSN3 as of
(11:00 am EDT)
1500 GMT on 06/20/2024:
     

Click on the graph icon in the table below to see a time series plot of the last five days of that observation.

5-day plot - Wind Direction Wind Direction (WDIR): W ( 280 deg true )
5-day plot - Wind Speed Wind Speed (WSPD):4.1 m/s
5-day plot - Wind Gust Wind Gust (GST):4.6 m/s
5-day plot - Atmospheric Pressure Atmospheric Pressure (PRES):1022.0 mb
5-day plot - Pressure Tendency Pressure Tendency (PTDY): -0.5 mb ( Falling )
5-day plot - Air Temperature Air Temperature (ATMP): 27.9 °C
5-day plot - Dew Point Dew Point (DEWP): 20.3 °C
5-day plot - Heat Index Heat Index (HEAT): 29.7 °C
5-day plot - Wind Speed at 10 Meters Wind Speed at 10 meters (WSPD10M): 4 m/s
5-day plot - Wind Speed at 20 Meters Wind Speed at 20 meters (WSPD20M): 4 m/s
5-day plot -  Wind Speed, Wind Gust and Atmospheric Pressure Combined plot of Wind Speed, Gust, and Air Pressure
Continuous Winds
TIME
(EDT)
5-day plot - Wind Direction WDIR 5-day plot - Wind Speed WSPD
11:00 amW ( 277 deg ) 4.1 m/s
10:50 amW ( 273 deg ) 4.1 m/s
10:40 amW ( 270 deg ) 4.6 m/s
10:30 amW ( 274 deg ) 4.6 m/s
10:20 amW ( 271 deg ) 4.6 m/s
10:10 amW ( 273 deg ) 4.6 m/s
 
Peak gust during the measurement hour
TIME
(EDT)
5-day plot - Gust Direction GDR 5-day plot - Gust Speed GST
10:09 amW ( 270 deg ) 5.1 m/s
Previous observations
TIME
(EDT)
5-day plot - Wind Direction
WDIR
 
5-day plot - Wind Speed
WSPD
m/s
5-day plot - Wind Gust
GST
m/s
5-day plot - Wave Height
WVHT
m
5-day plot - Dominant Wave Period
DPD
sec
5-day plot - Average Wave Period
APD
sec
5-day plot - Mean Wave Direction
MWD
 
5-day plot - Atmospheric Pressure
PRES
mb
5-day plot - Pressure Tendency
PTDY
mb
5-day plot - Air Temperature
ATMP
°C
5-day plot - Water Temperature
WTMP
°C
5-day plot - Dew Point
DEWP
°C
5-day plot - Salinity
SAL
psu
5-day plot - Visibility
VIS
km
5-day plot - Tide (above MLLW)
TIDE
m
2024-06-20 10:00 am W 4 5----1022.1 -0.3 26.5- 20.4---
2024-06-20 09:00 amWSW 6 6----1022.2 +0.4 24.9- 19.9---
2024-06-20 08:00 amWSW 7 7----1022.5 +0.6 24.3- 19.7---
2024-06-20 07:00 am SW 8 8----1022.4 +0.8 23.7- 19.7---
2024-06-20 06:00 am SW 8 9----1021.8 +0.0 23.4- 19.9---
2024-06-20 05:00 am SW 7 7----1021.9 +0.0 23.8- 20.1---
2024-06-20 04:00 am SW 8 8----1021.6 -0.6 24.4- 20.0---
2024-06-20 03:00 amWSW 8 8----1021.8 -0.6 24.6- 19.9---
2024-06-20 02:00 amWSW 6 6----1022.0 -1.0 24.5- 19.4---
2024-06-20 01:00 amWSW 7 8----1022.2 -0.8 25.6- 18.5---
2024-06-20 12:00 amWSW 9 9----1022.4 +0.0 26.6- 17.2---
2024-06-19 11:00 pmWSW 5 6----1023.0 +0.4 25.9- 18.5---
2024-06-19 10:00 pm W 7 7----1023.0 +0.7 26.8- 18.9---
2024-06-19 09:00 pmWSW 7 8----1022.5 +0.7 28.1- 17.2---
2024-06-19 08:00 pm W 8 8----1022.6 +0.5 29.2- 16.6---
2024-06-19 07:00 pmWSW 9 9----1022.3 -0.3 27.7- 20.2---
2024-06-19 06:00 pmSSW 10 11----1021.8 -0.9 30.1- 20.0---
2024-06-19 05:00 pm S 11 11----1022.1 -1.0 29.3- 19.9---
2024-06-19 04:00 pm S 11 11----1022.6 -0.9 28.5- 19.7---
2024-06-19 03:00 pm S 10 10----1022.7 -1.3 28.6- 19.2---
2024-06-19 02:00 pm S 8 8----1023.1 -1.0 27.0- 18.6---
2024-06-19 01:00 pm S 6 6----1023.5 -0.7 25.3- 18.2---
2024-06-19 12:00 pm S 7 8----1024.0 -0.5 26.2- 18.3---